Galesburg, IL

12:17 AM CDT on August 21, 2019 (GMT -0500)
Galesburg Municipal

Weather History for KGBG - May, 2019

Change the Weather History Date:

Friday, May 3, 2019

  Actual Average Record
Temperature  
Mean Temperature 48 °F -  
Max Temperature 58 °F 66 °F 88 °F (1949)
Min Temperature 39 °F 45 °F 24 °F (2005)
Degree Days  
Heating Degree Days 17    
Moisture  
Dew Point 45 °F    
Average Humidity 83    
Maximum Humidity 100    
Minimum Humidity 63    
Precipitation  
Precipitation 0.00 in - - ()
Sea Level Pressure  
Sea Level Pressure 30.08 in    
Wind  
Wind Speed 6 mph (NE)    
Max Wind Speed 14 mph    
Max Gust Speed 16 mph    
Visibility 8 miles    
Events Fog , Rain    
Averages and records for this station are not official NWS values.
T = Trace of Precipitation, MM = Missing Value Source: NWS Daily Summary

Daily Weather History Graph

Daily Weather History Graph

Search for Another Location

Airport or City:

Astronomy

May. 03, 2019 Rise Set
Actual Time 5:57 AM CDT 8:00 PM CDT
Civil Twilight 5:27 AM CDT 8:30 PM CDT
Nautical Twilight 4:50 AM CDT 9:07 PM CDT
Astronomical Twilight 4:11 AM CDT 9:47 PM CDT
Moon 5:40 AM CDT (5/3) 6:46 PM CDT (5/3)
Length of Visible Light 15h 02m
Length of Day
14h 02m
Waning Crescent, 2% of the Moon is Illuminated
May 3
Waning Crescent
May 4
New
May 11
First Quarter
May 18
Full
May 26
Last Quarter

Hourly Weather History & Observations

Time (CDT) Temp. Windchill Dew Point Humidity Pressure Visibility Wind Dir Wind Speed Gust Speed Precip Events Conditions
12:15 AM 50.4 °F - 48.2 °F 92% 30.12 in 10.0 mi NE 5.8 mph - N/A   Overcast
12:35 AM 49.6 °F - 47.5 °F 92% 30.13 in 10.0 mi NE 5.8 mph - N/A   Scattered Clouds
12:55 AM 49.1 °F - 46.9 °F 92% 30.13 in 10.0 mi ENE 5.8 mph - N/A   Clear
1:15 AM 48.0 °F - 46.0 °F 93% 30.13 in 10.0 mi ENE 3.5 mph - N/A   Clear
1:35 AM 45.9 °F 44.6 °F 45.3 °F 98% 30.12 in 10.0 mi NE 3.5 mph - N/A   Clear
1:55 AM 44.2 °F - 44.2 °F 100% 30.11 in 10.0 mi Calm Calm - N/A   Clear
2:15 AM 45.7 °F - 45.5 °F 99% 30.11 in 7.0 mi Calm Calm - N/A   Clear
2:35 AM 44.2 °F - 44.2 °F 100% 30.10 in 0.8 mi Calm Calm - N/A   Mostly Cloudy
2:55 AM 44.1 °F - 44.1 °F 100% 30.12 in 5.0 mi Calm Calm - N/A   Scattered Clouds
3:15 AM 41.9 °F 39.0 °F 41.9 °F 100% 30.10 in 1.0 mi NE 4.6 mph - N/A   Mostly Cloudy
3:35 AM 41.0 °F 38.0 °F 41.0 °F 100% 30.10 in 0.5 mi NE 4.6 mph - N/A Fog Fog
3:55 AM 41.9 °F 39.0 °F 41.9 °F 100% 30.09 in 2.0 mi NE 4.6 mph - N/A   Scattered Clouds
4:15 AM 43.0 °F 41.3 °F 43.0 °F 100% 30.09 in 1.8 mi NE 3.5 mph - N/A   Mist
4:30 AM 41.9 °F - 41.9 °F 100% 30.10 in 4.0 mi Calm Calm - N/A   Clear
4:50 AM 41.2 °F 37.3 °F 41.2 °F 100% 30.08 in 1.5 mi NE 5.8 mph - N/A   Mist
5:15 AM 43.5 °F 41.9 °F 43.5 °F 100% 30.10 in 2.0 mi ENE 3.5 mph - N/A   Clear
5:35 AM 42.3 °F 39.4 °F 42.3 °F 100% 30.10 in 3.0 mi East 4.6 mph - N/A   Clear
5:55 AM 39.9 °F 36.7 °F 39.9 °F 100% 30.09 in 0.2 mi NE 4.6 mph - N/A Fog Fog
6:15 AM 40.6 °F 37.5 °F 40.6 °F 100% 30.09 in 0.5 mi NE 4.6 mph - N/A Fog Fog
6:30 AM 41.5 °F - 41.5 °F 100% 30.10 in 1.0 mi Calm Calm - N/A   Mostly Cloudy
6:55 AM 43.9 °F - 43.9 °F 100% 30.09 in 2.5 mi Calm Calm - N/A   Scattered Clouds
7:15 AM 46.9 °F - 46.9 °F 100% 30.09 in 5.0 mi NE 6.9 mph - N/A   Scattered Clouds
7:35 AM 46.9 °F - 46.9 °F 100% 30.10 in 4.0 mi NE 5.8 mph - N/A   Clear
7:55 AM 46.9 °F - 46.9 °F 100% 30.10 in 5.0 mi ENE 6.9 mph - N/A   Clear
8:15 AM 47.5 °F - 47.5 °F 100% 30.10 in 7.0 mi NE 6.9 mph - N/A   Scattered Clouds
8:35 AM 48.7 °F - 47.7 °F 96% 30.10 in 10.0 mi NE 5.8 mph - N/A   Scattered Clouds
8:55 AM 49.1 °F - 47.1 °F 93% 30.12 in 10.0 mi NE 5.8 mph - N/A   Clear
9:15 AM 51.4 °F - 47.8 °F 87% 30.11 in 10.0 mi NE 8.1 mph - N/A   Clear
9:35 AM 52.7 °F - 46.0 °F 78% 30.11 in 10.0 mi NE 11.5 mph 16.1 mph N/A   Scattered Clouds
9:55 AM 54.0 °F - 45.9 °F 74% 30.12 in 10.0 mi ENE 10.4 mph - N/A   Clear
10:15 AM 54.9 °F - 45.3 °F 70% 30.12 in 10.0 mi ENE 10.4 mph - N/A   Scattered Clouds
10:35 AM 55.9 °F - 45.5 °F 68% 30.11 in 10.0 mi East 10.4 mph - N/A   Mostly Cloudy
10:55 AM 55.6 °F - 43.9 °F 65% 30.12 in 10.0 mi East 4.6 mph - N/A   Mostly Cloudy
11:15 AM 54.9 °F - 43.5 °F 66% 30.10 in 10.0 mi ENE 10.4 mph - N/A   Mostly Cloudy
11:35 AM 55.4 °F - 44.6 °F 67% 30.10 in 10.0 mi NE 6.9 mph - N/A   Mostly Cloudy
11:55 AM 56.5 °F - 45.1 °F 66% 30.09 in 10.0 mi NE 12.7 mph 16.1 mph N/A   Mostly Cloudy
12:15 PM 55.8 °F - 44.4 °F 66% 30.09 in 10.0 mi ENE 11.5 mph 16.1 mph N/A   Overcast
12:35 PM 57.6 °F - 46.0 °F 65% 30.09 in 10.0 mi NE 9.2 mph - N/A   Mostly Cloudy
12:55 PM 57.7 °F - 46.2 °F 65% 30.09 in 10.0 mi ENE 8.1 mph 16.1 mph N/A   Mostly Cloudy
1:15 PM 57.4 °F - 45.3 °F 64% 30.09 in 10.0 mi NE 9.2 mph - N/A   Mostly Cloudy
1:35 PM 56.7 °F - 45.0 °F 65% 30.09 in 10.0 mi North 8.1 mph - N/A   Mostly Cloudy
1:55 PM 57.2 °F - 45.1 °F 64% 30.09 in 10.0 mi NE 8.1 mph - N/A   Mostly Cloudy
2:15 PM 57.4 °F - 44.8 °F 63% 30.09 in 10.0 mi ENE 10.4 mph - N/A   Overcast
2:35 PM 56.3 °F - 45.1 °F 66% 30.08 in 10.0 mi ENE 9.2 mph - N/A   Overcast
2:55 PM 55.8 °F - 45.3 °F 68% 30.09 in 10.0 mi WNW 13.8 mph - N/A   Overcast
3:15 PM 56.3 °F - 45.5 °F 67% 30.07 in 10.0 mi ENE 12.7 mph - N/A   Overcast
3:35 PM 55.8 °F - 44.6 °F 66% 30.06 in 10.0 mi NE 12.7 mph - N/A   Overcast
3:55 PM 56.5 °F - 45.5 °F 67% 30.05 in 10.0 mi NE 11.5 mph - N/A   Overcast
4:15 PM 56.1 °F - 44.6 °F 65% 30.04 in 10.0 mi ENE 11.5 mph - N/A   Overcast
4:35 PM 55.4 °F - 44.6 °F 67% 30.06 in 10.0 mi NE 9.2 mph - N/A   Overcast
4:55 PM 55.4 °F - 44.2 °F 66% 30.06 in 10.0 mi NE 9.2 mph - N/A   Overcast
5:15 PM 55.4 °F - 44.2 °F 66% 30.06 in 10.0 mi NE 6.9 mph - N/A   Overcast
5:35 PM 55.2 °F - 44.8 °F 68% 30.06 in 10.0 mi ENE 8.1 mph - N/A   Overcast
5:55 PM 54.9 °F - 44.8 °F 69% 30.06 in 10.0 mi NE 6.9 mph - N/A   Overcast
6:15 PM 54.9 °F - 44.4 °F 68% 30.06 in 10.0 mi NE 8.1 mph - N/A   Overcast
6:35 PM 54.5 °F - 44.4 °F 69% 30.05 in 10.0 mi NE 8.1 mph - N/A Rain Rain
6:55 PM 53.8 °F - 45.0 °F 72% 30.04 in 10.0 mi ENE 8.1 mph - N/A Rain Light Rain
7:15 PM 53.4 °F - 45.1 °F 74% 30.03 in 10.0 mi ENE 6.9 mph - N/A Rain Light Rain
7:35 PM 52.9 °F - 45.3 °F 75% 30.03 in 10.0 mi ENE 4.6 mph - N/A   Overcast
7:55 PM 52.7 °F - 45.5 °F 76% 30.03 in 10.0 mi NE 5.8 mph - N/A   Overcast
8:15 PM 52.7 °F - 45.5 °F 76% 30.03 in 10.0 mi East 5.8 mph - N/A   Overcast
8:35 PM 52.7 °F - 45.0 °F 75% 30.04 in 10.0 mi East 4.6 mph - N/A   Mostly Cloudy
8:55 PM 52.3 °F - 45.1 °F 76% 30.04 in 10.0 mi East 3.5 mph - N/A   Scattered Clouds
9:15 PM 50.9 °F - 45.5 °F 82% 30.05 in 10.0 mi NE 3.5 mph - N/A   Clear
9:35 PM 48.7 °F - 45.5 °F 89% 30.05 in 10.0 mi East 4.6 mph - N/A   Clear
9:55 PM 46.9 °F - 44.8 °F 92% 30.05 in 10.0 mi East 5.8 mph - N/A   Clear
10:15 PM 46.0 °F 43.1 °F 44.1 °F 93% 30.04 in 10.0 mi WNW 5.8 mph - N/A   Clear
10:35 PM 45.7 °F 42.0 °F 44.2 °F 95% 30.04 in 10.0 mi East 6.9 mph - N/A   Clear
10:55 PM 44.1 °F 40.8 °F 43.5 °F 98% 30.03 in 7.0 mi ENE 5.8 mph - N/A   Clear
11:35 PM 45.1 °F - 45.0 °F 99% 30.03 in 7.0 mi Calm Calm - N/A   Clear
11:55 PM 43.9 °F 42.3 °F 43.5 °F 99% 30.03 in 7.0 mi NE 3.5 mph - N/A   Clear